This is the latest recevied weather packets stored in our database for station/object WI0K. If no packets are shown the sender has not sent any weather packets the latest 10 day(s).
| Time | Temp. | Humidity | Pressure | Rain* | Wind** | Luminosity | Snow |
|---|---|---|---|---|---|---|---|
| 1777986489 | 2.78° C | 94% | 1014.9 hPa | 0.25 mm | - | 18 W/m² | - |
| 1777986437 | 3.33° C | 95% | 1014.6 hPa | 0.25 mm | - | 25 W/m² | - |
| 1777986189 | 3.33° C | 95% | 1014.6 hPa | 0.25 mm | - | 25 W/m² | - |
| 1777986137 | 3.33° C | 95% | 1014.4 hPa | 0.25 mm | - | 16 W/m² | - |
| 1777985888 | 3.33° C | 95% | 1014.4 hPa | 0.25 mm | - | 16 W/m² | - |
| 1777985836 | 3.33° C | 95% | 1014.4 hPa | 0.51 mm | - | 18 W/m² | - |
| 1777985587 | 3.33° C | 95% | 1014.4 hPa | 0.51 mm | - | 18 W/m² | - |
| 1777985536 | 3.33° C | 94% | 1014.4 hPa | 0.76 mm | - | 11 W/m² | - |
| 1777985287 | 3.33° C | 94% | 1014.4 hPa | 0.76 mm | - | 11 W/m² | - |
| 1777985235 | 3.33° C | 94% | 1014.2 hPa | 0.76 mm | - | 7 W/m² | - |
| 1777984986 | 3.33° C | 94% | 1014.2 hPa | 0.76 mm | - | 7 W/m² | - |
| 1777984935 | 3.33° C | 94% | 1014.1 hPa | 0.76 mm | - | 6 W/m² | - |
| 1777984686 | 3.33° C | 94% | 1014.1 hPa | 0.76 mm | - | 6 W/m² | - |
| 1777984635 | 3.33° C | 94% | 1014.1 hPa | 0.76 mm | - | 7 W/m² | - |
| 1777984385 | 3.33° C | 94% | 1014.1 hPa | 0.76 mm | - | 7 W/m² | - |
| 1777984329 | 3.33° C | 94% | 1014.1 hPa | 0.76 mm | - | 7 W/m² | - |
| 1777984084 | 3.33° C | 94% | 1014.1 hPa | 0.76 mm | - | 7 W/m² | - |
| 1777984034 | 3.33° C | 94% | 1014.1 hPa | 1.02 mm | - | 3 W/m² | - |
| 1777983784 | 3.33° C | 94% | 1014.1 hPa | 1.02 mm | - | 3 W/m² | - |
| 1777983483 | 3.33° C | 93% | 1013.9 hPa | 1.02 mm | - | 3 W/m² | - |
| 1777983183 | 3.89° C | 93% | 1014.1 hPa | 1.02 mm | - | 1 W/m² | - |
| 1777982882 | 3.89° C | 94% | 1013.9 hPa | 1.02 mm | - | 1 W/m² | - |
| 1777982581 | 3.89° C | 93% | 1013.8 hPa | 0.76 mm | - | 1 W/m² | - |
| 1777982531 | 3.89° C | 92% | 1013.7 hPa | 0.76 mm | - | 1 W/m² | - |
| 1777982281 | 3.89° C | 92% | 1013.7 hPa | 0.76 mm | - | 1 W/m² | - |
* Rain latest hour (hover to see other rain measurements)
** Current wind speed in m/s (hover to see current wind gust speed)